Regional Weather Roundup
Issued by NWS

Home | Current Version | Previous Version | Graphics & Text | Print | Product List | Glossary On
Versions: 1 2 3 4 5 6 7 8 9 10 11 12 13 14 15 16 17 18 19 20 21 22 23 24 25 26 27 28 29 30 31 32 33 34 35 36 37 38 39 40 41 42 43 44 45 46 47 48 49 50
000
ASUS45 KTFX 251104
RWRMT
MONTANA HOURLY WEATHER ROUNDUP
NATIONAL WEATHER SERVICE GREAT FALLS MT
504 AM MDT SAT OCT 25 2014

NOTE: "FAIR" INDICATES FEW OR NO CLOUDS BELOW 12000 FEET WITH NO
SIGNIFICANT WEATHER AND/OR OBSTRUCTIONS TO VISIBILITY.

* THESE STATIONS ARE NOT UNDER NWS QUALITY CONTROL. THEY DO NOT
   REPORT WEATHER SUCH AS PRECIPITATION OR FOG.

MTZ001>007-043-251200-
WEST OF THE DIVIDE
CITY           SKY/WX    TMP DP  RH WIND       PRES   REMARKS
KALISPELL      CLOUDY    43  37  79 N6        29.96F
MISSOULA       FOG       39  39 100 CALM      29.98F VSB 2 1/2
BUTTE          CLEAR     30  28  92 CALM      30.06F
MULLAN PASS    FOG       36  36 100 SE13G21   29.91F VSB M1/4 WCI  27
* ESSEX        N/A       39  36  89 S9         N/A   WCI  33
* LINCOLN      N/A       33  32  96 E1         N/A
* LOOKOUT PASS N/A       40  40 100 S6G15      N/A   WCI  36
* POLSON       N/A       39  39 100 N/A        N/A
* RONAN APT    CLOUDY    39  37  93 N/A        N/A
* SEELEY LAKE  N/A       34  33  96 NE1        N/A
* THOMP F APT  CLOUDY    48  24  39 N6         N/A
* YAAK HILL    N/A       41  38  89 N/A        N/A
$$

MTZ008-052>055-251200-
SOUTHWEST MONTANA
CITY           SKY/WX    TMP DP  RH WIND       PRES   REMARKS
BOZEMAN        CLEAR     30  28  92 S6        30.05F WCI  24
DILLON         CLEAR     36  34  92 S5        30.04F WCI  32
W YELLOWSTONE  CLEAR     25  25 100 CALM      30.17F
* THREE FORKS  CLEAR     34  18  52 N/A        N/A
* BOULDER HILL N/A       36  34  92 S14        N/A   WCI  27
* MONIDA PASS  N/A       40  25  55 SE7        N/A   WCI  35
* RAYNOLDS PAS N/A       39  28  65 SW7        N/A   WCI  34
* WHITEHALL    N/A       31  30  96 SW2        N/A
* WISE RIVER   N/A       34  33  96 NE5        N/A   WCI  29
$$

MTZ009>010-012-014-046-048-049-054-251200-
EAST SLOPES AND CENTRAL MONTANA
CITY           SKY/WX    TMP DP  RH WIND       PRES   REMARKS
CUT BANK       MOCLDY    43  32  65 NE8       30.01F
GREAT FALLS    CLOUDY    39  37  93 CALM      30.00F
HELENA         PTCLDY    37  36  96 CALM      30.03F
* CONRAD       MOCLDY    36  34  92 N/A        N/A
* DEARBORN     N/A       38  37  96 S1         N/A
* EAST GLACIER N/A       36  35  96 N6         N/A   WCI  31
* MONARCH      N/A       35  31  85 S4         N/A
* PENDROY      N/A       38  36  93 SE2        N/A
* ROGERS PASS  N/A       38  36  93 N1         N/A
* SAINT MARY   N/A       38  34  86 SE2        N/A
* SWEET GRASS  N/A       41  32  70 SE5        N/A
$$

MTZ011-013-016-021-035-040-045-047-050-051-251200-
NORTH CENTRAL MONTANA
CITY           SKY/WX    TMP DP  RH WIND       PRES   REMARKS
HAVRE          CLOUDY    39  32  76 E6        30.05F WCI  35
LEWISTOWN      CLOUDY    39  36  89 SE6       30.05F WCI  35
* CHESTER      N/A       43  30  60 E3         N/A
* DENTON       N/A       40  38  93 SE9        N/A   WCI  34
* GEYSER       N/A       35  34  96 S4         N/A
* JUDITH GAP   N/A       37  36  96 S10        N/A   WCI  30
* LOMA         N/A       43  34  71 NE9        N/A
$$

MTZ017>020-022>027-061-062-251200-
NORTHEAST MONTANA
CITY           SKY/WX    TMP DP  RH WIND       PRES   REMARKS
GLASGOW        CLOUDY    43  34  71 E5        30.08F
GLENDIVE       PTCLDY    36  28  73 W5        30.12F WCI  32
JORDAN         CLOUDY    32  28  85 CALM      30.09F
SIDNEY         MOCLDY    45  34  65 CALM      30.13S
WOLF POINT     CLOUDY    43  34  71 CALM      30.10F
* BEAVER HILL  N/A       45  29  54 S8         N/A
* CIRCLE       N/A       43  32  65 N/A        N/A
* LINDSAY DVD  N/A       40  27  60 SW1        N/A
* NAVAJO       N/A       38  26  62 NW1        N/A
$$

MTZ028>042-056>058-251200-
SOUTHCENTRAL AND SOUTHEAST MONTANA
CITY           SKY/WX    TMP DP  RH WIND       PRES   REMARKS
BAKER          MOCLDY    34  28  79 S3        30.13F
BILLINGS       MOCLDY    39  34  82 S7        30.07F WCI  34
LIVINGSTON     CLEAR     32  28  85 VRB5      30.08F WCI  27
MILES CITY     MOCLDY    39  32  76 S5        30.11S WCI  35
* LAUREL APT   PTCLDY    36  30  79 N/A        N/A
* ROUNDUP APT  MOCLDY    37  32  82 N/A        N/A
* ALZADA       N/A       37  30  76 E4         N/A
* HYSHAM       N/A       47  28  48 NE1        N/A
* LAME DEER    N/A       45  29  54 SE6        N/A
* REED POINT   N/A       31  31 100 N/A        N/A
* ROSCOE HILL  N/A       41  33  73 SW2G8      N/A
$$

REGIONAL REPORTS...DAKOTAS
CITY           SKY/WX    TMP DP  RH WIND       PRES   REMARKS
WILLISTON      PTCLDY    37  30  76 CALM      30.11R
DICKINSON      MOCLDY    45  30  56 NW5       30.09F
BEACH          N/A       36  32  85 S3        30.12F
CROSBY         CLEAR     34  30  85 SW9       30.10R WCI  27
TIOGA          CLEAR     32  32 100 W5        30.13S WCI  27
BISMARCK       MOCLDY    45  34  65 W6        30.11R
GRAND FORKS    PTCLDY    39  32  76 W6        30.00R WCI  35
FARGO          CLOUDY    43  32  65 W9        30.04R
BUFFALO SD     MOCLDY    46  28  50 CALM      30.07F
RAPID CITY     CLEAR     37  30  76 NW6       30.15S WCI  32
$$

REGIONAL REPORTS...WYOMING/IDAHO/WASHINGTON
CITY           SKY/WX    TMP DP  RH WIND       PRES   REMARKS
GILLETTE       PTCLDY    39  30  70 SE7       30.12F WCI  34
SHERIDAN       CLEAR     28  25  89 S6        30.09F WCI  21
CODY           PTCLDY    37  30  76 S3        30.10F
YELLOWSTONE LA CLEAR     27  23  85 NW3       30.24F
SALMON         CLOUDY    41  39  93 CALM      30.03F
MULLAN PASS    FOG       36  36 100 SE13G21   29.91S VSB M1/4 WCI  27
SAND POINT     CLOUDY    45  39  80 NE12G18   29.89F
SPOKANE        CLOUDY    46  43  89 NE9       29.80F

$$




USA.gov is the U.S. government's official web portal to all federal, state and local government web resources and services.